This is the latest recevied weather packets stored in our database for station/object 4S6DRJ-13. If no packets are shown the sender has not sent any weather packets the latest 10 day(s).
| Time | Temp. | Humidity | Pressure | Rain* | Wind** | Luminosity | Snow |
|---|---|---|---|---|---|---|---|
| 1788212211 | 27.22° C | 88% | 1007.6 hPa | 0 mm | 0.89 m/s, 144° | 0 W/m² | - |
| 1788212150 | 27.22° C | 88% | 1007.9 hPa | 0 mm | 0.89 m/s, 140° | 0 W/m² | - |
| 1788212089 | 27.22° C | 88% | 1007.6 hPa | 0 mm | 0.89 m/s, 158° | 0 W/m² | - |
| 1788212028 | 27.22° C | 88% | 1007.7 hPa | 0 mm | 0.89 m/s, 183° | 0 W/m² | - |
| 1788211967 | 27.22° C | 88% | 1007.7 hPa | 0 mm | 0.45 m/s, 164° | 0 W/m² | - |
| 1788211905 | 27.22° C | 87% | 1007.6 hPa | 0 mm | 0.89 m/s, 150° | 0 W/m² | - |
| 1788211844 | 27.22° C | 87% | 1007.8 hPa | 0 mm | 0.89 m/s, 161° | 0 W/m² | - |
| 1788211784 | 27.22° C | 88% | 1007.7 hPa | 0 mm | 0.45 m/s, 119° | 0 W/m² | - |
| 1788211722 | 27.22° C | 87% | 1007.7 hPa | 0 mm | 0.89 m/s, 115° | 0 W/m² | - |
| 1788211662 | 27.22° C | 87% | 1007.8 hPa | 0 mm | 1.34 m/s, 148° | 0 W/m² | - |
| 1788211600 | 27.22° C | 87% | 1007.7 hPa | 0 mm | 0.45 m/s, 138° | 0 W/m² | - |
| 1788211540 | 27.22° C | 87% | 1007.7 hPa | 0 mm | 1.34 m/s, 146° | 0 W/m² | - |
| 1788211478 | 27.22° C | 87% | 1007.7 hPa | 0 mm | 0.89 m/s, 142° | 0 W/m² | - |
| 1788211417 | 27.22° C | 87% | 1007.7 hPa | 0 mm | 0.45 m/s, 137° | 0 W/m² | - |
| 1788211358 | 27.22° C | 87% | 1007.8 hPa | 0 mm | 0.89 m/s, 130° | 0 W/m² | - |
| 1788211298 | 27.22° C | 87% | 1007.7 hPa | 0 mm | 0 m/s | 0 W/m² | - |
| 1788211235 | 27.22° C | 87% | 1007.8 hPa | 0 mm | 0.45 m/s, 136° | 0 W/m² | - |
| 1788211175 | 27.22° C | 87% | 1007.8 hPa | 0 mm | 0.45 m/s, 132° | 0 W/m² | - |
| 1788211114 | 27.22° C | 87% | 1007.8 hPa | 0 mm | 0.45 m/s, 113° | 0 W/m² | - |
| 1788211052 | 27.22° C | 87% | 1007.9 hPa | 0 mm | 0.45 m/s, 136° | 0 W/m² | - |
| 1788210991 | 27.22° C | 87% | 1007.8 hPa | 0 mm | 0.89 m/s, 143° | 0 W/m² | - |
| 1788210931 | 27.22° C | 87% | 1007.6 hPa | 0 mm | 0 m/s | 0 W/m² | - |
| 1788210870 | 27.22° C | 87% | 1007.8 hPa | 0 mm | 0 m/s | 0 W/m² | - |
| 1788210808 | 27.22° C | 87% | 1007.7 hPa | 0 mm | 0.45 m/s, 105° | 0 W/m² | - |
| 1788210747 | 27.22° C | 87% | 1007.7 hPa | 0 mm | 0.89 m/s, 130° | 0 W/m² | - |
* Rain latest hour (hover to see other rain measurements)
** Current wind speed in m/s (hover to see current wind gust speed)